Theta_e
303 306 310 313 317 322 324 326 326 326 326 324 324 324 324 323 323 322 322 322 321 320 321 320 319 320 319 318 317 316 315 314 311 305 300 299 297 296 294 293 292 292 291
302 304 306 310 313 315 319 323 325 325 324 324 325 324 323 323 323 321 321 321 321 319 320 318 318 318 317 318 316 314 314 312 311 307 297 295 296 295 294 291 291 291 288
301 303 305 308 311 313 315 318 319 322 323 323 324 324 324 323 322 322 321 321 320 320 319 317 318 316 314 314 312 312 309 301 303 298 295 293 292 291 289 288 288 286 289
299 300 302 304 307 311 314 316 318 319 320 321 322 324 323 323 322 322 321 321 319 318 318 317 316 315 314 311 308 307 302 299 295 291 288 289 288 287 287 286 285 284 285
300 298 300 302 304 307 309 312 313 313 318 319 320 321 322 321 320 319 318 318 317 316 314 314 314 308 301 305 305 302 299 294 289 289 287 286 286 285 286 285 285 284 282
298 297 298 298 298 300 303 304 303 304 310 313 312 313 314 315 307 305 312 315 313 313 311 305 302 292 296 297 298 298 300 296 291 289 287 287 287 287 285 285 285 283 278
294 294 294 292 292 293 293 295 297 300 302 305 307 307 308 312 301 302 300 314 311 309 305 300 295 294 293 295 295 295 295 296 295 293 288 288 287 287 286 284 283 280 284
291 292 291 292 291 291 290 291 295 298 298 301 301 303 304 301 298 298 295 306 303 302 300 299 297 292 292 292 291 289 289 290 292 292 292 289 289 287 287 285 283 281 282
289 289 290 290 290 290 290 290 291 294 296 297 294 296 295 297 295 296 296 294 294 294 296 296 296 292 291 292 289 287 286 286 291 291 291 291 290 289 286 284 279 275 272
287 287 288 289 289 289 289 290 291 291 292 294 293 292 292 294 293 294 295 292 290 290 289 290 288 292 291 292 289 287 286 285 285 285 287 289 289 288 288 284 280 275 272
285 285 284 286 287 288 288 289 289 289 290 291 291 291 290 290 291 294 294 292 293 289 289 287 288 291 292 292 291 288 288 286 287 284 284 284 285 284 284 282 281 278 275
279 278 280 284 286 287 287 287 288 288 288 288 288 290 288 288 289 293 294 294 292 290 288 287 287 291 292 292 289 290 289 286 284 283 282 282 282 282 283 281 281 282 280
274 275 279 283 285 286 287 287 287 288 288 288 288 289 291 287 288 291 293 292 291 288 287 287 289 291 291 290 289 290 286 285 283 282 281 281 282 283 282 282 282 282 281
271 275 279 279 281 285 286 287 287 287 288 288 288 288 289 290 288 288 289 290 288 287 287 287 289 289 289 287 287 287 285 285 284 283 282 281 282 282 281 282 280 280 276
269 270 273 277 280 281 284 286 287 288 289 288 288 289 288 289 288 290 289 288 288 287 286 286 286 285 285 285 285 284 284 284 283 282 281 281 281 281 280 280 279 272 271
266 268 268 269 272 276 280 284 289 289 290 291 291 291 290 291 291 290 290 290 289 288 286 285 284 283 283 283 282 282 282 282 283 282 282 281 280 279 278 274 273 271 271
264 266 267 268 269 272 277 281 283 287 289 289 290 291 291 291 290 290 290 289 289 288 286 284 283 282 282 282 282 282 281 281 281 281 280 279 278 277 275 274 274 274 269
265 266 266 267 269 272 277 282 284 285 285 286 288 289 290 291 290 290 290 289 286 287 286 283 282 282 282 281 281 281 279 279 279 278 277 276 276 276 274 274 274 271 267
265 267 268 269 270 274 278 281 284 285 285 286 286 286 287 290 290 290 290 286 285 284 284 283 283 283 282 282 281 279 279 278 277 276 275 274 273 273 272 271 271 269 268
267 268 270 271 272 275 278 279 283 284 284 285 284 284 285 285 285 286 286 286 285 284 284 283 283 282 281 279 278 277 275 274 273 273 272 271 271 271 270 269 268 267 266
266 267 268 269 269 271 272 273 274 278 281 282 281 280 286 284 284 285 285 284 284 283 281 279 278 277 276 275 274 273 273 272 272 271 270 269 268 268 268 268 266 265 264
265 265 266 267 268 268 268 268 269 270 269 270 270 271 276 273 272 271 270 270 272 273 274 274 273 273 273 273 272 271 270 269 269 269 268 267 267 266 266 265 265 264 262
263 263 264 265 265 266 266 267 267 267 267 267 267 267 267 267 267 267 266 267 267 268 269 270 269 268 269 270 271 271 270 269 269 269 267 266 265 265 264 264 263 261 261
262 262 262 262 263 263 264 264 264 265 265 265 265 265 265 265 265 265 265 265 265 266 266 267 267 266 266 266 267 267 268 268 267 267 266 265 264 264 263 263 262 261 261
260 260 260 260 261 261 261 262 262 263 263 263 264 264 264 265 264 264 264 264 264 264 264 265 265 265 265 264 264 264 266 266 265 265 265 265 264 263 263 263 262 261 260
258 258 258 258 259 259 260 260 260 261 261 261 262 262 263 263 263 264 264 264 263 264 263 263 264 264 264 264 263 264 265 265 263 263 263 263 262 262 262 261 261 260 260
Wind_Speed
6 6 7 7 8 9 13 14 15 14 15 13 14 15 16 17 17 16 17 16 16 15 15 15 17 16 11 9 8 9 9 9 11 3 2 3 4 4 3 2 1 2 2
7 7 7 7 7 7 10 13 13 14 12 15 16 16 17 18 18 18 19 17 17 17 17 15 17 11 14 13 9 11 10 7 8 10 4 3 3 1 3 2 2 3 3
7 7 7 7 7 9 9 9 8 11 12 12 14 16 17 16 16 16 17 16 16 17 15 15 16 14 13 10 10 9 7 4 5 4 4 2 2 2 2 1 1 3 2
9 8 8 8 8 9 10 10 11 11 11 12 14 15 15 16 16 15 16 16 14 14 15 15 16 15 15 12 10 10 7 6 4 3 2 3 3 2 2 2 1 2 1
13 10 10 9 9 9 10 10 9 8 12 11 12 12 13 13 11 14 13 14 13 14 14 14 14 12 13 11 8 8 8 5 3 3 3 2 3 3 4 3 2 1 1
14 14 13 11 11 10 10 11 8 8 10 9 9 9 10 9 12 15 14 12 14 15 13 8 6 7 9 13 12 11 12 11 7 4 3 4 5 3 3 4 4 3 2
14 14 11 11 12 13 9 10 13 12 9 9 10 7 11 11 12 16 17 12 10 10 8 7 6 4 6 7 8 9 9 10 7 8 6 6 5 7 7 4 4 3 3
13 13 14 14 13 14 10 10 12 11 13 12 10 10 9 6 9 11 12 10 8 9 10 11 11 10 9 9 9 7 6 5 6 5 5 5 4 7 6 4 5 4 3
14 13 15 16 17 15 15 14 11 9 12 14 7 9 9 9 12 13 10 6 6 7 7 8 9 9 13 14 10 10 7 4 5 9 11 14 15 14 11 7 3 4 1
16 17 16 16 16 17 16 15 12 8 11 11 11 10 9 11 13 15 14 6 7 5 5 6 10 12 18 19 12 12 11 9 10 7 6 11 12 12 12 3 6 5 4
17 18 19 18 17 16 16 14 12 11 10 11 15 9 9 9 9 16 17 9 8 6 7 6 5 15 20 20 16 12 11 13 13 8 7 6 6 6 4 2 3 4 3
20 21 20 18 15 13 15 15 14 12 11 11 10 11 7 7 10 16 18 17 11 9 9 5 6 17 19 19 14 16 20 16 8 8 7 6 7 6 6 4 4 3 2
21 21 20 21 19 16 17 16 13 12 10 10 9 9 11 6 7 16 18 17 14 7 5 9 14 17 19 15 16 20 19 9 9 9 8 7 7 6 6 5 4 4 4
21 20 18 19 19 18 14 12 12 11 11 10 10 10 10 10 8 7 9 11 13 8 12 10 12 12 12 10 11 14 8 9 9 8 8 6 6 6 4 3 3 3 2
19 18 17 14 16 17 15 14 12 14 12 12 12 10 9 11 10 14 13 10 10 11 11 9 9 8 8 8 8 9 7 7 7 7 8 8 7 6 4 2 2 2 3
18 15 14 14 14 13 14 15 19 23 25 26 27 21 11 18 13 20 22 21 22 26 9 11 12 13 12 11 10 10 8 9 7 8 8 8 7 7 6 2 2 3 3
17 17 14 15 14 14 14 14 15 12 19 23 26 26 26 20 18 22 22 23 26 26 11 12 14 13 12 12 11 11 10 10 10 7 8 8 7 6 7 3 3 3 2
18 22 15 13 13 15 14 15 13 13 12 11 13 20 24 24 23 25 26 24 14 19 12 11 13 13 12 12 12 10 9 9 10 9 8 7 7 7 6 6 5 3 3
16 14 14 13 13 16 15 16 13 13 12 12 9 8 13 21 24 26 28 14 15 15 13 13 12 12 12 11 11 10 11 10 9 9 8 8 7 6 5 5 5 5 5
14 20 18 13 13 13 12 13 13 12 12 11 9 9 6 8 10 12 13 13 10 10 9 10 10 10 10 11 10 10 9 9 8 7 7 7 6 6 7 7 6 5 3
12 13 18 12 12 12 11 11 11 11 8 6 5 5 11 10 10 10 9 9 6 6 7 8 8 9 9 9 10 9 9 8 7 7 6 6 6 6 6 5 5 5 5
12 13 13 13 12 13 12 11 11 11 10 9 8 9 17 6 6 6 7 7 7 7 6 7 6 6 7 8 9 10 9 8 7 7 6 6 6 6 6 6 6 4 4
13 14 14 13 13 16 14 13 12 12 11 11 10 9 9 8 8 8 7 6 7 7 6 7 7 7 6 6 6 7 8 9 8 8 8 8 7 6 6 6 6 5 4
13 14 14 13 13 13 13 14 13 16 13 12 11 10 10 9 9 9 8 7 7 7 6 7 7 7 6 5 5 5 5 6 6 7 9 8 7 8 6 6 6 5 5
12 13 13 13 13 13 12 12 12 13 12 12 12 11 10 10 10 9 8 7 6 8 8 6 6 6 6 6 5 6 6 9 6 8 6 7 8 9 7 6 7 6 4
12 12 11 11 11 11 11 11 12 12 12 12 11 11 11 11 10 8 8 8 7 6 5 4 4 5 5 4 5 6 7 9 7 8 6 6 7 6 6 7 9 6 6
Wind_Direction
300 288 280 263 245 231 229 227 224 226 224 216 212 211 212 211 210 210 217 221 220 221 219 218 221 220 220 217 218 224 223 225 246 225 163 139 179 154 160 132 95 227 250
283 287 282 279 272 253 245 241 232 227 223 221 220 215 213 211 209 208 214 216 219 218 220 216 222 217 220 221 214 217 222 212 234 238 168 166 204 150 128 152 202 221 204
298 287 285 281 280 275 262 248 232 230 231 225 225 224 220 215 213 215 218 219 221 222 218 216 222 218 219 219 212 218 210 186 203 164 172 101 119 122 116 131 174 282 240
313 299 289 285 282 280 277 266 254 243 237 229 225 225 221 215 215 214 215 219 220 220 217 214 217 216 219 211 206 209 195 187 166 145 134 151 140 130 125 150 150 266 291
338 318 297 293 291 289 285 277 269 257 249 242 236 230 223 216 212 209 210 213 215 219 218 217 218 212 207 199 195 200 178 162 147 164 137 136 149 161 182 154 140 216 327
334 327 319 315 304 293 287 286 282 272 263 250 236 227 222 221 214 205 205 213 216 220 220 211 193 185 198 194 191 181 181 177 178 152 162 179 173 162 142 159 144 158 171
331 328 323 318 313 307 293 298 288 279 276 261 250 230 238 238 205 212 208 222 218 218 206 185 186 182 175 163 151 160 164 168 163 174 165 183 164 171 144 151 170 150 165
322 326 330 330 322 314 298 280 280 277 272 263 254 242 238 227 202 202 198 216 201 195 192 191 193 182 182 164 151 145 140 143 157 170 167 159 145 142 150 162 154 111 70
327 327 326 324 320 316 306 295 277 272 274 265 243 236 230 237 206 203 188 197 205 201 192 185 184 178 170 164 155 154 140 126 121 121 126 130 137 144 149 130 144 120 111
327 323 321 314 309 308 304 298 285 261 266 272 257 237 234 236 203 200 191 186 196 186 183 183 183 177 168 172 166 161 159 158 137 122 127 137 139 150 157 150 154 147 128
317 320 315 308 303 301 300 298 286 271 268 262 263 247 226 218 211 202 195 192 198 183 190 186 185 177 176 177 169 173 173 155 155 144 139 131 136 137 138 153 156 135 134
322 312 310 306 303 301 300 302 292 276 266 265 260 260 237 214 206 209 204 204 185 186 193 179 178 178 178 174 165 170 159 151 148 151 152 151 154 160 173 160 140 131 130
314 309 305 305 306 302 300 297 294 280 265 260 251 252 255 222 221 207 199 196 197 189 157 173 172 175 177 173 173 170 157 156 158 161 167 166 169 163 140 135 157 170 174
305 303 309 309 301 300 295 289 282 275 268 264 253 248 247 241 221 203 200 194 185 168 156 165 169 173 170 162 167 160 165 165 167 168 162 149 137 147 156 151 150 159 113
310 306 300 300 305 303 291 285 271 264 258 268 261 257 247 242 227 211 198 190 182 171 144 151 163 164 163 169 172 163 164 159 161 159 150 150 151 151 153 137 132 126 148
304 307 303 300 297 292 288 286 265 259 257 253 255 252 254 250 220 203 201 189 178 163 164 174 176 172 172 173 173 161 161 166 164 161 152 154 158 162 162 142 128 148 162
300 300 298 298 294 292 288 283 287 278 252 252 254 250 246 242 216 196 195 188 179 171 192 186 181 181 174 171 172 173 168 165 150 160 154 152 154 167 160 153 153 147 123
300 298 293 291 290 290 286 286 281 280 281 276 246 244 244 232 208 200 193 184 187 190 193 187 182 179 176 171 169 171 156 154 153 152 150 147 158 164 157 162 168 148 131
308 302 298 293 288 284 288 286 277 278 275 275 273 246 240 221 209 204 195 195 198 196 189 185 181 179 174 168 162 155 155 153 155 151 152 153 154 154 154 152 149 150 138
318 315 315 310 309 307 304 304 289 273 274 270 261 246 234 215 219 211 205 206 203 201 188 176 166 163 158 149 144 147 139 143 151 154 154 147 150 153 158 159 159 155 158
329 328 330 331 333 333 332 331 330 329 314 304 315 311 251 219 224 215 206 204 194 176 160 144 139 135 135 134 137 139 141 143 149 148 149 148 151 155 150 150 145 141 137
337 339 344 347 348 350 347 348 350 353 359 4 360 359 20 44 51 63 65 58 61 68 78 101 99 108 123 131 138 135 136 144 149 149 151 154 156 148 148 147 144 138 138
344 345 350 356 360 358 357 1 5 6 4 7 7 10 13 20 31 37 45 47 56 64 66 87 101 88 84 99 109 130 148 160 163 159 159 159 158 156 154 151 150 143 147
348 351 351 356 360 3 3 1 3 9 11 9 13 16 17 21 28 33 32 38 48 48 49 63 73 91 94 86 87 92 103 115 138 154 151 154 155 153 149 148 155 148 151
347 353 354 356 359 357 356 3 4 4 6 10 11 12 15 20 23 22 24 25 40 53 45 41 57 75 84 100 104 102 123 132 130 135 136 147 155 157 158 158 154 146 143
350 354 351 358 356 354 355 356 4 5 3 3 6 11 11 14 14 16 17 23 28 33 38 36 55 82 108 117 130 142 150 144 140 141 134 145 154 160 159 161 157 156 154